sat.trackr.live / text

‹ back to catalog

STARLINK-34760

NORAD 65359 · 2025-190J

PAYLOAD ACTIVE UNKNOWN

§ Identity

Operator
Country
US
Launch date
2025-08-28
Launch site
AFETR
Launch vehicle
Mass (kg)
RCS (m²)

Purposes: comms

External: N2YO · Heavens-Above · Gunter

§ Orbital elements

Epoch: 2026-09-20T11:30:03.849408Z

Period
93.85 min
Inclination
53.1592°
Eccentricity
0.0001592
Mean motion
15.34406055 rev/d
Perigee alt
461.6 km
Apogee alt
463.8 km
Semi-major
6,840.8 km
B*
7.1663e-4
RAAN
341.6104°
Arg perigee
76.5015°
Mean anomaly
283.6165°
Rev number
5,913

§ Raw data

STARLINK-347601 65359U 25190J   26263.47921122  .00023918  00000+0  71663-3 0  99902 65359  53.1592 341.6104 0001592  76.5015 283.6165 15.34406055 59137

JSON: /api/v1/satellites/65359 · /tle

For live sub-satellite position, see the globe view (requires WebGL).

§ Visibility from observer

Set your observer location to see the next 7 days of passes ≥ 10°. The values pass through the URL so the page stays shareable.

No JS? Fill the form by hand. The geolocation button needs JavaScript.